FW6138 Weather Reports


Display with metric or nautical units.
time (UTC)temp
F
wind
direction
speed
MPH
gust
MPH
rain 1hr
in
rain 24hr
in
rain mn
in
humidity
%
barometer
mb
20260903090031 50 135 0.0 0.0 0.00 0.30 0.00 97 1012.5
20260903084608 50 135 0.0 0.0 0.00 0.30 0.00 97 1012.6
20260903083045 50 135 0.0 1.0 0.00 0.30 0.00 97 1012.5
20260903080030 50 79 2.0 4.0 0.00 0.30 0.00 97 1012.4
20260903074533 50 168 1.0 4.0 0.00 0.30 0.00 96 1012.2
20260903070030 52 216 1.0 5.0 0.00 0.30 0.00 96 1012.0
20260903064529 52 56 1.0 4.0 0.00 0.30 0.30 96 1012.0
20260903063030 52 84 0.0 3.0 0.00 0.30 0.30 96 1012.0
20260903061547 52 122 0.0 2.0 0.00 0.30 0.30 96 1012.0
20260903060035 52 146 1.0 4.0 0.00 0.30 0.30 96 1012.0
20260903054532 53 233 1.0 4.0 0.01 0.30 0.30 96 1011.8
20260903053034 54 273 0.0 1.0 0.01 0.30 0.30 96 1011.8
20260903051615 54 167 1.0 4.0 0.01 0.30 0.30 96 1011.8
20260903050031 54 135 2.0 4.0 0.01 0.30 0.28 95 1011.7
20260903043030 55 90 0.0 0.0 0.00 0.28 0.28 95 1011.4
20260903040033 56 128 0.0 4.0 0.00 0.28 0.28 95 1010.7
20260903033037 56 67 0.0 0.0 0.00 0.28 0.28 95 1010.6
20260903031536 57 67 0.0 0.0 0.03 0.28 0.28 94 1010.5
20260903030031 57 67 0.0 0.0 0.11 0.28 0.28 94 1010.3
20260903024537 58 335 0.0 0.0 0.11 0.28 0.26 94 1010.2
20260903021535 58 302 0.0 4.0 0.08 0.26 0.18 94 1010.2
20260903020043 58 329 0.0 3.0 0.00 0.18 0.18 93 1009.9
20260903014531 58 360 0.0 0.0 0.02 0.18 0.18 93 1009.7
20260903011532 58 360 0.0 0.0 0.04 0.18 0.18 93 1009.7
20260903010031 58 360 0.0 0.0 0.06 0.18 0.16 93 1009.8
20260903004531 58 360 0.0 2.0 0.04 0.16 0.14 92 1009.8
20260903003032 59 360 0.0 0.0 0.02 0.14 0.14 92 1009.9
20260903001538 59 360 0.0 3.0 0.03 0.14 0.12 92 1009.8
20260903000030 59 360 0.0 2.0 0.02 0.12 0.12 92 1009.7
20260902234530 59 341 0.0 4.0 0.02 0.12 0.12 91 1009.7
20260902233106 60 336 0.0 4.0 0.02 0.12 0.11 91 1009.8
20260902231530 60 333 2.0 3.0 0.01 0.11 0.10 91 1009.9
20260902230146 59 323 1.0 3.0 0.01 0.10 0.10 92 1010.0
20260902224532 59 322 1.0 5.0 0.02 0.10 0.10 93 1009.8
20260902223030 59 316 2.0 5.0 0.03 0.10 0.10 92 1009.9
20260902221645 59 313 2.0 5.0 0.04 0.10 0.09 91 1009.8
20260902214533 59 310 2.0 5.0 0.03 0.08 0.07 91 1009.6
20260902213032 60 316 3.0 6.0 0.03 0.07 0.06 90 1009.5
20260902210032 60 29 0.0 4.0 0.03 0.06 0.05 88 1009.7
20260902204534 60 57 1.0 5.0 0.03 0.05 0.04 87 1009.8
20260902203144 60 12 0.0 4.0 0.03 0.04 0.03 86 1009.9
20260902201531 61 17 0.0 3.0 0.03 0.03 0.03 85 1009.8
20260902200036 61 38 0.0 4.0 0.03 0.03 0.02 84 1009.7
20260902194536 61 272 0.0 3.0 0.02 0.02 0.01 82 1009.7
20260902193031 62 263 0.0 2.0 0.01 0.01 0.00 79 1009.7
20260902191537 63 225 0.0 3.0 0.00 0.00 0.00 77 1009.5
20260902190029 64 237 0.0 4.0 0.00 0.00 0.00 75 1009.3
20260902184530 64 284 0.0 3.0 0.00 0.00 0.00 72 1009.3
20260902183031 65 312 0.0 2.0 0.00 0.00 0.00 70 1009.2
20260902181607 64 313 2.0 6.0 0.00 0.00 0.00 71 1009.2
20260902180030 64 314 1.0 5.0 0.00 0.00 0.00 70 1009.3
20260902174539 64 308 3.0 6.0 0.00 0.00 0.00 71 1009.4
20260902173030 62 294 2.0 5.0 0.00 0.00 0.00 73 1009.6
20260902171607 63 282 3.0 7.0 0.00 0.00 0.00 70 1009.7
20260902170032 63 291 2.0 6.0 0.00 0.00 0.00 72 1009.8
20260902163030 63 90 0.0 4.0 0.00 0.00 0.00 74 1010.2
20260902161530 62 77 0.0 3.0 0.00 0.00 0.00 76 1010.4
20260902154529 61 315 0.0 0.0 0.00 0.00 0.00 82 1010.8
20260902153029 59 16 0.0 2.0 0.00 0.00 0.00 85 1010.9
20260902150031 56 74 0.0 3.0 0.00 0.00 0.00 89 1011.3
20260902144531 56 299 0.0 2.0 0.00 0.00 0.00 90 1011.3
20260902141530 53 36 0.0 1.0 0.00 0.00 0.00 91 1011.7
20260902131534 50 143 2.0 5.0 0.00 0.00 0.00 89 1011.8
20260902124533 51 138 0.0 4.0 0.00 0.00 0.00 87 1011.8
20260902123032 53 127 1.0 4.0 0.00 0.00 0.00 85 1011.9
20260902121532 54 161 0.0 3.0 0.00 0.00 0.00 84 1011.9
20260902120030 55 267 1.0 5.0 0.00 0.00 0.00 82 1011.9
20260902114608 56 286 2.0 7.0 0.00 0.00 0.00 81 1012.0
20260902113030 56 308 3.0 7.0 0.00 0.00 0.00 81 1012.1
20260902110031 57 309 5.0 10.0 0.00 0.00 0.00 81 1012.1
20260902103032 56 316 4.0 8.0 0.00 0.00 0.00 84 1012.3
20260902100032 56 299 2.0 6.0 0.00 0.00 0.00 85 1012.4
20260902094530 56 294 1.0 5.0 0.00 0.00 0.00 84 1012.4
20260902091532 56 258 1.0 5.0 0.00 0.00 0.00 84 1012.7